,

(GMT )
Logrono

Weather History for LELO - October, 2013

Change the Weather History Date:

Tuesday, October 29, 2013

  Actual Average Record
Temperature  
Mean Temperature 52 °F -  
Max Temperature 57 °F - - ()
Min Temperature 46 °F - - ()
Degree Days  
Heating Degree Days 14    
Growing Degree Days 2 (Base 50)    
Moisture  
Dew Point 46 °F    
Average Humidity 80    
Maximum Humidity 100    
Minimum Humidity 43    
Precipitation  
Precipitation 0.00 in - - ()
Sea Level Pressure  
Sea Level Pressure 30.19 in    
Wind  
Wind Speed 4 mph ()    
Max Wind Speed 10 mph    
Max Gust Speed -    
Visibility 7.6 miles    
Events Rain    
T = Trace of Precipitation, MM = Missing Value Source: Averaged Metar Reports

Daily Weather History Graph

Daily Weather History Graph

Search for Another Location

Airport or City:

Trip Planner

Search our weather history database for the weather conditions in past years. The results will help you decide how hot, cold, wet, or windy it might be!

Date:

Astronomy

Oct. 29, 2013 Rise Set
Actual Time 7:39 AM CET 6:06 PM CET
Civil Twilight 7:10 AM CET 6:35 PM CET
Nautical Twilight 6:36 AM CET 7:08 PM CET
Astronomical Twilight 6:04 AM CET 7:41 PM CET
Moon 2:08 AM CET (10/29) 3:18 PM CET (10/29)
Length of Visible Light 11h 25m
Length of Day
10h 27m
Waning Crescent, 27% of the Moon is Illuminated
Oct 29
Waning Crescent
Nov 3
New
Nov 10
First Quarter
Nov 17
Full
Nov 25
Last Quarter

Hourly Weather History & Observations

Time (CET) Temp. Dew Point Humidity Pressure Visibility Wind Dir Wind Speed Gust Speed Precip Events Conditions
12:00 AM 53.6 °F 51.8 °F 94% 30.12 in 6.2 mi WSW 3.5 mph - N/A   Mostly Cloudy
1:00 AM 51 °F 46 °F 77% 30.13 in 16 mi Calm Calm - -   Mostly Cloudy
1:00 AM 51.8 °F 50.0 °F 94% 30.12 in 6.2 mi West 3.5 mph - N/A   Mostly Cloudy
2:00 AM 50.0 °F 50.0 °F 100% 30.12 in 6.2 mi Variable 2.3 mph - N/A   Scattered Clouds
3:00 AM 50.0 °F 50.0 °F 100% 30.12 in 6.2 mi West 3.5 mph - N/A   Mostly Cloudy
4:00 AM 51.8 °F 50.0 °F 94% 30.12 in 6.2 mi West 5.8 mph - N/A   Drizzle
5:00 AM 51.8 °F 50.0 °F 94% 30.12 in 6.2 mi Variable 2.3 mph - N/A   Overcast
6:00 AM 50.0 °F 48.2 °F 94% 30.12 in 6.2 mi West 5.8 mph - N/A   Drizzle
7:00 AM 48 °F 44 °F 79% 30.16 in 16 mi West 3.5 mph - - Rain Light Drizzle
7:00 AM 48.2 °F 46.4 °F 93% 30.12 in 6.2 mi West 8.1 mph - N/A   Scattered Clouds
8:00 AM 46.4 °F 46.4 °F 100% 30.15 in 6.2 mi Variable 2.3 mph - N/A   Partly Cloudy
9:00 AM 50.0 °F 50.0 °F 100% 30.18 in 6.2 mi Variable 1.2 mph - N/A   Partly Cloudy
10:00 AM 51.8 °F 48.2 °F 88% 30.21 in 6.2 mi Variable 1.2 mph - N/A   Partly Cloudy
11:00 AM 57.2 °F 44.6 °F 63% 30.21 in 6.2 mi West 8.1 mph - N/A   Scattered Clouds
12:00 PM 55.4 °F 41.0 °F 58% 30.21 in 6.2 mi WNW 10.4 mph - N/A   Mostly Cloudy
1:00 PM 54 °F 38 °F 43% 30.23 in 19 mi NW 6.9 mph - -   Mostly Cloudy
1:00 PM 55.4 °F 42.8 °F 63% 30.21 in 6.2 mi WNW 8.1 mph - N/A   Mostly Cloudy
2:00 PM 55.4 °F 44.6 °F 67% 30.21 in 6.2 mi NW 6.9 mph - N/A   Mostly Cloudy
3:00 PM 57.2 °F 44.6 °F 63% 30.21 in 6.2 mi WNW 8.1 mph - N/A   Mostly Cloudy
4:00 PM 57.2 °F 46.4 °F 67% 30.21 in 6.2 mi West 10.4 mph - N/A   Mostly Cloudy
5:00 PM 55.4 °F 46.4 °F 72% 30.21 in 6.2 mi WNW 5.8 mph - N/A   Scattered Clouds
6:00 PM 51.8 °F 48.2 °F 88% 30.24 in 6.2 mi SW 3.5 mph - N/A   Mostly Cloudy
7:00 PM 52 °F 42 °F 61% 30.27 in 12 mi WSW 2.3 mph - -   Overcast
7:00 PM 51.8 °F 44.6 °F 76% 30.24 in 6.2 mi West 6.9 mph - N/A   Overcast
8:00 PM 51.8 °F 44.6 °F 76% 30.27 in 6.2 mi West 6.9 mph - N/A   Mostly Cloudy
9:00 PM 51.8 °F 44.6 °F 76% 30.27 in 6.2 mi West 5.8 mph - N/A   Mostly Cloudy
10:00 PM 51.8 °F 44.6 °F 76% 30.27 in 6.2 mi WNW 4.6 mph - N/A   Mostly Cloudy
11:00 PM 50.0 °F 42.8 °F 76% 30.27 in 6.2 mi West 5.8 mph - N/A   Scattered Clouds